KC2DUX-10 Weather Reports


Display with metric or nautical units.
time (UTC)temp
F
wind
direction
speed
MPH
gust
MPH
rain 1hr
in
rain 24hr
in
rain mn
in
humidity
%
barometer
mb
20210422233541 0 360 19.0 33.0 0.00 0.00 0.00 1014.4
20210422233045 0 360 23.0 33.0 0.00 0.00 0.00 1014.3
20210422232604 0 360 24.0 31.0 0.00 0.00 0.00 1014.1
20210422232042 0 360 23.0 31.0 0.00 0.00 0.00 1014.1
20210422231703 0 360 22.0 32.0 0.00 0.00 0.00 1013.9
20210422231038 0 360 19.0 29.0 0.00 0.00 0.00 1014.0
20210422230537 0 360 20.0 31.0 0.00 0.00 0.00 1013.9
20210422230120 0 360 25.0 32.0 0.00 0.00 0.00 1013.8
20210422225537 0 360 18.0 32.0 0.00 0.00 0.00 1013.8
20210422225037 0 360 25.0 36.0 0.00 0.00 0.00 1013.7
20210422224657 0 360 24.0 36.0 0.00 0.00 0.00 1013.7
20210422224040 0 360 26.0 33.0 0.00 0.00 0.00 1013.6
20210422223544 0 360 21.0 31.0 0.00 0.00 0.00 1013.5
20210422223209 0 360 22.0 31.0 0.00 0.00 0.00 1013.5
20210422222542 0 360 22.0 31.0 0.00 0.00 0.00 1013.6
20210422222039 0 360 20.0 33.0 0.00 0.00 0.00 1013.6
20210422221715 0 360 22.0 36.0 0.00 0.00 0.00 1013.5
20210422221035 0 360 22.0 34.0 0.00 0.00 0.00 1013.5
20210422220544 0 360 26.0 34.0 0.00 0.00 0.00 1013.4
20210422220241 0 360 25.0 33.0 0.00 0.00 0.00 1013.4
20210422215542 0 360 23.0 33.0 0.00 0.01 0.00 1013.3
20210422215046 0 360 24.0 33.0 0.00 0.01 0.00 1013.3
20210422214621 0 360 23.0 34.0 0.00 0.01 0.00 1013.3
20210422214034 0 360 25.0 32.0 0.00 0.01 0.00 1013.3
20210422213533 0 360 21.0 32.0 0.00 0.01 0.00 1013.3
20210422213042 0 360 22.0 34.0 0.00 0.01 0.00 1013.3
20210422212551 0 360 23.0 34.0 0.00 0.01 0.00 1013.2
20210422212042 0 360 23.0 32.0 0.00 0.01 0.00 1013.2
20210422211538 0 360 24.0 33.0 0.00 0.01 0.00 1013.0
20210422211032 0 360 25.0 33.0 0.00 0.01 0.00 1012.9
20210422210532 0 360 23.0 33.0 0.00 0.01 0.00 1012.9
20210422210107 0 360 24.0 33.0 0.00 0.01 0.00 1013.0
20210422205535 0 360 25.0 34.0 0.00 0.01 0.00 1013.0
20210422205032 0 360 27.0 34.0 0.00 0.01 0.00 1012.9
20210422204551 0 360 25.0 32.0 0.00 0.01 0.00 1012.9
20210422204032 0 360 23.0 34.0 0.00 0.01 0.00 1012.8
20210422203536 0 360 24.0 34.0 0.00 0.01 0.00 1013.0
20210422203117 0 360 25.0 34.0 0.00 0.01 0.00 1013.0
20210422202531 0 360 22.0 34.0 0.00 0.01 0.00 1012.9
20210422202037 0 360 22.0 32.0 0.00 0.01 0.00 1013.0
20210422201539 0 360 22.0 32.0 0.00 0.01 0.00 1012.9
20210422201037 0 360 24.0 31.0 0.00 0.01 0.00 1012.9
20210422200530 0 360 22.0 32.0 0.00 0.01 0.00 1013.0
20210422200038 0 360 24.0 32.0 0.00 0.01 0.00 1012.9
20210422195529 0 360 21.0 31.0 0.00 0.03 0.00 1013.0
20210422195029 0 360 21.0 36.0 0.00 0.03 0.00 1013.1
20210422194624 0 360 27.0 36.0 0.00 0.03 0.00 1013.0
20210422194029 0 360 25.0 34.0 0.00 0.03 0.00 1013.2
20210422193527 0 360 26.0 34.0 0.00 0.03 0.00 1013.1
20210422193043 0 360 24.0 33.0 0.00 0.03 0.00 1013.2
20210422192524 0 360 24.0 33.0 0.00 0.03 0.00 1013.2
20210422192024 0 360 24.0 33.0 0.00 0.03 0.00 1013.2
20210422191608 0 360 26.0 33.0 0.00 0.03 0.00 1013.2
20210422191026 0 360 19.0 30.0 0.00 0.03 0.00 1013.2
20210422190522 0 360 23.0 30.0 0.00 0.03 0.00 1013.2
20210422190059 0 360 22.0 31.0 0.00 0.03 0.00 1013.3
20210422185515 0 360 23.0 32.0 0.00 0.15 0.00 1013.3
20210422185014 0 360 20.0 32.0 0.00 0.15 0.00 1013.3
20210422184530 0 360 21.0 29.0 0.00 0.15 0.00 1013.3
20210422184014 0 360 20.0 29.0 0.00 0.15 0.00 1013.5
20210422183510 0 360 18.0 27.0 0.00 0.15 0.00 1013.5
20210422183027 0 360 19.0 28.0 0.00 0.15 0.00 1013.6
20210422182506 0 360 22.0 29.0 0.00 0.15 0.00 1013.5
20210422182006 0 360 22.0 36.0 0.00 0.15 0.00 1013.7
20210422181504 0 360 26.0 36.0 0.00 0.15 0.00 1013.7
20210422181002 0 360 29.0 35.0 0.00 0.15 0.00 1013.6
20210422180502 0 360 26.0 34.0 0.00 0.15 0.00 1013.6
20210422180140 0 360 22.0 34.0 0.00 0.15 0.00 1013.6
20210422175558 0 360 27.0 35.0 0.00 0.15 0.00 1013.6
20210422175103 0 360 28.0 34.0 0.00 0.15 0.00 1013.5
20210422174643 0 360 23.0 31.0 0.00 0.15 0.00 1013.6
20210422174054 0 360 22.0 30.0 0.00 0.15 0.00 1013.7
20210422173603 0 360 20.0 30.0 0.00 0.15 0.00 1013.8
20210422173244 0 360 18.0 29.0 0.00 0.15 0.00 1013.7
20210422172621 0 360 21.0 29.0 0.00 0.15 0.00 1013.7
20210422172058 0 360 21.0 30.0 0.00 0.15 0.00 1013.8
20210422171618 0 360 23.0 33.0 0.00 0.15 0.00 1014.0
20210422171109 0 360 22.0 33.0 0.00 0.15 0.00 1014.0
20210422170555 0 360 24.0 33.0 0.00 0.15 0.00 1014.1
20210422170125 0 360 22.0 32.0 0.00 0.15 0.00 1014.1
20210422165607 0 360 20.0 30.0 0.00 0.15 0.00 1014.2
20210422165052 0 360 19.0 28.0 0.00 0.15 0.00 1014.2
20210422164753 0 360 21.0 32.0 0.00 0.15 0.00 1014.3
20210422164051 0 360 22.0 32.0 0.00 0.15 0.00 1014.4
20210422163602 0 360 21.0 31.0 0.00 0.15 0.00 1014.3
20210422163122 0 360 20.0 33.0 0.00 0.15 0.00 1014.3
20210422162550 0 360 21.0 33.0 0.00 0.15 0.00 1014.4
20210422162049 0 360 21.0 33.0 0.00 0.15 0.00 1014.4
20210422161613 0 360 21.0 38.0 0.00 0.15 0.00 1014.4
20210422161055 0 360 26.0 38.0 0.00 0.15 0.00 1014.4
20210422160543 0 360 29.0 35.0 0.00 0.15 0.00 1014.5
20210422160058 0 360 27.0 35.0 0.00 0.15 0.00 1014.5
20210422155541 0 360 20.0 28.0 0.00 0.15 0.00 1014.5
20210422155039 0 360 22.0 30.0 0.00 0.15 0.00 1014.4
20210422154540 0 360 22.0 30.0 0.00 0.15 0.00 1014.4
20210422154036 0 360 23.0 29.0 0.00 0.15 0.00 1014.4
20210422153535 0 360 20.0 30.0 0.00 0.15 0.00 1014.4
20210422153100 0 360 23.0 34.0 0.00 0.15 0.00 1014.3
20210422152534 0 360 26.0 34.0 0.00 0.15 0.00 1014.3
20210422152039 0 360 22.0 32.0 0.00 0.15 0.00 1014.4
20210422151625 0 360 24.0 32.0 0.00 0.15 0.00 1014.4
20210422151027 0 360 22.0 32.0 0.00 0.15 0.00 1014.3
20210422150526 0 360 21.0 31.0 0.00 0.15 0.00 1014.6
20210422150031 0 360 23.0 29.0 0.00 0.15 0.00 1014.4
20210422145529 0 360 21.0 32.0 0.00 0.15 0.00 1014.4
20210422145023 0 360 20.0 33.0 0.00 0.15 0.00 1014.3
20210422144540 0 360 24.0 34.0 0.00 0.15 0.00 1014.4
20210422144019 0 360 24.0 34.0 0.00 0.15 0.00 1014.4
20210422143517 0 360 25.0 35.0 0.00 0.15 0.00 1014.3
20210422143015 0 360 24.0 39.0 0.00 0.15 0.00 1014.3
20210422142513 0 360 26.0 39.0 0.00 0.15 0.00 1014.1
20210422142012 0 360 23.0 34.0 0.00 0.15 0.00 1014.2
20210422141522 0 360 24.0 35.0 0.00 0.15 0.00 1014.2
20210422141017 0 360 22.0 33.0 0.00 0.15 0.00 1014.2
20210422140507 0 360 24.0 37.0 0.00 0.15 0.00 1014.2
20210422140007 0 360 26.0 37.0 0.00 0.15 0.00 1014.2
20210422135503 0 360 24.0 35.0 0.00 0.15 0.00 1014.1
20210422135002 0 360 25.0 35.0 0.00 0.15 0.00 1014.2
20210422134501 0 360 24.0 33.0 0.00 0.15 0.00 1014.2
20210422134059 0 360 22.0 33.0 0.00 0.15 0.00 1014.1
20210422133559 0 360 26.0 33.0 0.00 0.15 0.00 1014.2
20210422133108 0 360 26.0 37.0 0.00 0.15 0.00 1014.3
20210422132558 0 360 25.0 37.0 0.00 0.15 0.00 1014.2
20210422131715 0 360 21.0 34.0 0.00 0.15 0.00 1014.3
20210422131050 0 360 28.0 34.0 0.00 0.15 0.00 1014.4
20210422130549 0 360 25.0 31.0 0.00 0.15 0.00 1014.3
20210422130316 0 360 22.0 33.0 0.00 0.15 0.00 1014.3
20210422125546 0 360 23.0 33.0 0.00 0.15 0.00 1014.3
20210422125048 0 360 21.0 31.0 0.00 0.15 0.00 1014.3
20210422124614 0 360 21.0 31.0 0.00 0.15 0.00 1014.3
20210422124042 0 360 24.0 30.0 0.00 0.15 0.00 1014.4
20210422123540 0 360 21.0 30.0 0.00 0.15 0.00 1014.4
20210422123133 0 360 23.0 30.0 0.00 0.15 0.00 1014.4
20210422122540 0 360 20.0 31.0 0.00 0.15 0.00 1014.4
20210422122036 0 360 26.0 31.0 0.00 0.15 0.00 1014.4
20210422121603 0 360 19.0 26.0 0.00 0.15 0.00 1014.4
20210422121044 0 360 18.0 32.0 0.00 0.15 0.00 1014.5
20210422120544 0 360 25.0 32.0 0.00 0.15 0.00 1014.4
20210422120103 0 360 23.0 31.0 0.00 0.15 0.00 1014.5
20210422115527 0 360 22.0 30.0 0.00 0.15 0.00 1014.4
20210422115029 0 360 23.0 30.0 0.00 0.15 0.00 1014.4
20210422114551 0 360 22.0 34.0 0.00 0.15 0.00 1014.4
20210422114038 0 360 23.0 34.0 0.00 0.15 0.00 1014.2
20210422113522 0 360 22.0 31.0 0.00 0.15 0.00 1014.3
20210422113037 0 360 23.0 33.0 0.00 0.15 0.00 1014.2
20210422112519 0 360 23.0 34.0 0.00 0.15 0.00 1014.2
20210422112018 0 360 26.0 34.0 0.00 0.15 0.00 1014.1
20210422111604 0 360 20.0 35.0 0.00 0.15 0.00 1014.0
20210422111023 0 360 23.0 35.0 0.00 0.15 0.00 1014.0
20210422110513 0 360 25.0 33.0 0.00 0.15 0.00 1013.9
20210422110017 0 360 21.0 30.0 0.00 0.15 0.00 1013.9
20210422105510 0 360 20.0 30.0 0.00 0.15 0.00 1013.8
20210422105008 0 360 21.0 29.0 0.00 0.15 0.00 1013.7
20210422104515 0 360 23.0 29.0 0.00 0.15 0.00 1013.7
20210422104005 0 360 19.0 31.0 0.00 0.15 0.00 1013.6
20210422103505 0 360 21.0 29.0 0.00 0.15 0.00 1013.5
20210422103011 0 360 16.0 30.0 0.00 0.15 0.00 1013.5
20210422102502 0 360 23.0 33.0 0.00 0.15 0.00 1013.3
20210422102100 0 360 24.0 34.0 0.00 0.15 0.00 1013.3
20210422101637 0 360 25.0 34.0 0.00 0.15 0.00 1013.3
20210422101135 0 360 26.0 34.0 0.00 0.15 0.00 1013.1
20210422100555 0 360 23.0 35.0 0.00 0.15 0.00 1013.0
20210422100056 0 360 25.0 37.0 0.00 0.15 0.00 1012.7
20210422095608 0 360 26.0 37.0 0.00 0.15 0.00 1012.7
20210422095051 0 360 22.0 36.0 0.00 0.15 0.00 1012.6
20210422094611 0 360 28.0 36.0 0.00 0.15 0.00 1012.5
20210422094049 0 360 21.0 31.0 0.00 0.15 0.00 1012.5
20210422093547 0 360 24.0 36.0 0.00 0.15 0.00 1012.5
20210422093143 0 360 23.0 36.0 0.00 0.15 0.00 1012.5
20210422092558 0 360 24.0 34.0 0.00 0.15 0.00 1012.4
20210422092042 0 360 25.0 34.0 0.00 0.15 0.00 1012.4
20210422091627 0 360 24.0 34.0 0.00 0.15 0.00 1012.3
20210422091045 0 360 26.0 36.0 0.00 0.15 0.00 1012.3
20210422090623 0 360 28.0 36.0 0.00 0.15 0.00 1012.2
20210422090042 0 360 24.0 38.0 0.00 0.15 0.00 1012.2
20210422085535 0 360 28.0 38.0 0.00 0.15 0.00 1012.2
20210422085058 0 360 25.0 33.0 0.00 0.15 0.00 1012.1
20210422084629 0 360 25.0 31.0 0.00 0.15 0.00 1012.0
20210422084037 0 360 23.0 31.0 0.00 0.15 0.00 1012.0
20210422083544 0 360 20.0 35.0 0.00 0.15 0.00 1012.0
20210422083046 0 360 24.0 35.0 0.00 0.15 0.00 1012.0
20210422082533 0 360 23.0 35.0 0.00 0.15 0.00 1012.1
20210422082121 0 360 26.0 36.0 0.00 0.15 0.00 1012.1
20210422081617 0 360 22.0 36.0 0.00 0.15 0.00 1012.0
20210422081022 0 360 24.0 32.0 0.00 0.15 0.00 1012.0
20210422080534 0 360 20.0 30.0 0.00 0.15 0.00 1011.9
20210422080029 0 360 23.0 30.0 0.00 0.15 0.00 1012.0
20210422075516 0 360 18.0 26.0 0.00 0.15 0.00 1011.9
20210422075015 0 360 18.0 29.0 0.00 0.15 0.00 1012.0
20210422074522 0 360 22.0 30.0 0.00 0.15 0.00 1011.9
20210422074012 0 360 21.0 32.0 0.00 0.15 0.00 1011.9
20210422073511 0 360 23.0 32.0 0.00 0.15 0.00 1011.8
20210422072512 0 360 22.0 31.0 0.00 0.15 0.00 1011.8
20210422072005 0 360 22.0 29.0 0.00 0.15 0.00 1011.7
20210422071509 0 360 20.0 28.0 0.00 0.15 0.00 1011.5
20210422071005 0 360 19.0 27.0 0.00 0.15 0.00 1011.5
20210422070600 0 360 19.0 28.0 0.00 0.15 0.00 1011.4
20210422070214 0 360 20.0 30.0 0.00 0.15 0.00 1011.4
20210422065558 0 360 22.0 31.0 0.00 0.15 0.00 1011.4
20210422065056 0 360 23.0 31.0 0.00 0.15 0.00 1011.4
20210422064654 0 360 23.0 28.0 0.00 0.15 0.00 1011.3
20210422064103 0 360 17.0 26.0 0.00 0.15 0.00 1011.4
20210422063552 0 360 19.0 26.0 0.00 0.15 0.00 1011.4
20210422063133 0 360 14.0 25.0 0.00 0.15 0.00 1011.4
20210422062607 0 360 20.0 34.0 0.00 0.15 0.00 1011.3
20210422062047 0 360 20.0 34.0 0.00 0.15 0.00 1011.3
20210422061607 0 360 23.0 32.0 0.00 0.15 0.00 1011.3
20210422061045 0 360 21.0 32.0 0.00 0.15 0.00 1011.2
20210422060544 0 360 25.0 32.0 0.00 0.15 0.00 1011.2
20210422060225 0 360 23.0 34.0 0.00 0.15 0.00 1011.2
20210422055545 0 360 23.0 34.0 0.00 0.15 0.00 1011.1
20210422055039 0 360 23.0 32.0 0.00 0.15 0.00 1011.2
20210422054700 0 360 20.0 36.0 0.00 0.15 0.00 1011.3
20210422054040 0 360 22.0 36.0 0.00 0.15 0.00 1011.4
20210422053539 0 360 21.0 30.0 0.00 0.15 0.00 1011.2
20210422053035 0 360 23.0 34.0 0.00 0.15 0.00 1011.2
20210422052536 0 360 25.0 34.0 0.00 0.15 0.00 1011.2
20210422052036 0 360 21.0 30.0 0.00 0.15 0.00 1011.2
20210422051600 0 360 21.0 30.0 0.00 0.15 0.00 1011.2
20210422051027 0 360 16.0 28.0 0.00 0.15 0.00 1011.1
20210422050531 0 360 19.0 27.0 0.00 0.15 0.00 1011.2
20210422050032 0 360 15.0 29.0 0.00 0.15 0.00 1011.2
20210422045523 0 360 22.0 30.0 0.00 0.15 0.00 1011.3
20210422045022 0 360 20.0 31.0 0.00 0.15 0.00 1011.2
20210422044528 0 360 23.0 31.0 0.00 0.15 0.00 1011.3
20210422044019 0 360 23.0 33.0 0.00 0.15 0.00 1011.2
20210422043523 0 360 22.0 33.0 0.00 0.15 0.00 1011.2
20210422043039 0 360 24.0 32.0 0.00 0.15 0.00 1011.1
20210422042512 0 360 22.0 33.0 0.00 0.15 0.00 1011.1
20210422042011 0 360 22.0 32.0 0.00 0.15 0.00 1011.0
20210422041524 0 360 24.0 34.0 0.00 0.15 0.00 1011.1
20210422041017 0 360 23.0 34.0 0.00 0.15 0.00 1011.1
20210422040506 0 360 26.0 33.0 0.00 0.15 0.00 1011.0
20210422040023 0 360 21.0 33.0 0.00 0.15 0.00 1010.9
20210422035509 0 360 17.0 33.0 0.00 0.15 0.15 1010.8
20210422035005 0 360 23.0 32.0 0.00 0.15 0.15 1010.7
20210422034501 0 360 21.0 28.0 0.00 0.15 0.15 1010.6
20210422034111 0 360 20.0 29.0 0.00 0.15 0.15 1010.6
20210422033601 0 360 20.0 29.0 0.00 0.15 0.15 1010.5
20210422033248 0 360 22.0 33.0 0.00 0.15 0.15 1010.5
20210422032555 0 360 26.0 36.0 0.00 0.15 0.15 1010.6
20210422032109 0 360 26.0 36.0 0.00 0.15 0.15 1010.6
20210422031731 0 360 23.0 31.0 0.00 0.15 0.15 1010.7
20210422031050 0 360 20.0 31.0 0.00 0.15 0.15 1010.6
20210422030549 0 360 18.0 28.0 0.00 0.15 0.15 1010.4
20210422030115 0 360 18.0 31.0 0.00 0.15 0.15 1010.4
20210422025552 0 360 20.0 31.0 0.00 0.15 0.15 1010.3
20210422025044 0 360 20.0 31.0 0.00 0.15 0.15 1010.1
20210422024554 0 360 24.0 34.0 0.00 0.15 0.15 1010.1
20210422024041 0 360 20.0 32.0 0.00 0.15 0.15 1010.1
20210422023552 0 360 22.0 32.0 0.00 0.15 0.15 1010.0
20210422022542 0 360 21.0 31.0 0.00 0.15 0.15 1009.7
20210422022051 0 360 20.0 34.0 0.00 0.15 0.15 1009.6
20210422021555 0 360 19.0 37.0 0.00 0.15 0.15 1009.6
20210422021033 0 360 26.0 37.0 0.00 0.15 0.15 1009.5
20210422020532 0 360 23.0 35.0 0.00 0.15 0.15 1009.4
20210422020038 0 360 25.0 35.0 0.00 0.15 0.15 1009.3
20210422015528 0 360 27.0 35.0 0.00 0.15 0.15 1009.3
20210422015041 0 360 23.0 42.0 0.00 0.15 0.15 1009.2
20210422014705 0 360 28.0 42.0 0.00 0.15 0.15 1009.1
20210422014035 0 360 27.0 36.0 0.00 0.15 0.15 1009.1
20210422013538 0 360 28.0 35.0 0.00 0.15 0.15 1009.0
20210422013037 0 360 19.0 40.0 0.00 0.15 0.15 1009.0
20210422012523 0 360 26.0 40.0 0.00 0.15 0.15 1008.9
20210422012018 0 360 26.0 37.0 0.00 0.15 0.15 1008.8
20210422011528 0 360 26.0 35.0 0.00 0.15 0.15 1008.7
20210422011015 0 360 29.0 39.0 0.00 0.15 0.15 1008.6
20210422010513 0 360 31.0 40.0 0.00 0.15 0.15 1008.5
20210422010019 0 360 29.0 40.0 0.00 0.15 0.15 1008.3
20210422005510 0 360 25.0 39.0 0.00 0.15 0.15 1008.1
20210422005009 0 360 31.0 42.0 0.00 0.15 0.15 1008.0
20210422004507 0 360 28.0 42.0 0.00 0.15 0.15 1008.0
20210422004005 0 360 27.0 39.0 0.00 0.15 0.15 1007.8
20210422003510 0 360 26.0 39.0 0.00 0.15 0.15 1007.8
20210422003005 0 360 26.0 39.0 0.00 0.15 0.15 1007.6
20210422002600 0 360 26.0 39.0 0.00 0.15 0.15 1007.5
20210422002101 0 360 28.0 36.0 0.00 0.15 0.15 1007.6
20210422001627 0 360 26.0 35.0 0.00 0.15 0.15 1007.5
20210422001056 0 360 26.0 39.0 0.00 0.15 0.15 1007.4
20210422000555 0 360 28.0 39.0 0.00 0.15 0.15 1007.4
20210422000124 0 360 27.0 40.0 0.00 0.15 0.15 1007.1
20210421235555 0 360 29.0 40.0 0.00 0.15 0.15 1007.1
20210421235050 0 360 25.0 35.0 0.00 0.15 0.15 1007.0
20210421234623 0 360 24.0 34.0 0.00 0.15 0.15 1007.0
20210421234047 0 360 23.0 32.0 0.00 0.15 0.15 1006.8